Location: Frizzleburg
(41.0764°N, 80.4548°W)
Time: 13:18:30
(UTC+00:00)

SJ 16-02 - Pass Details

Date: 17 November 2019
Orbit: 606 x 616 km, 75.0° (Epoch: 09 December)

Event Time Altitude Azimuth Distance (km) Brightness Sun altitude
Exits shadow 10:06:14 42° 359° (N) 869 2.0 -23.5°
Drops below altitude 10° 10:09:15 10° 13° (NNE) 1,965 4.0 -23.0°
Sets 10:11:31 0° 16° (NNE) 2,873 4.9 -22.6°
